This is the latest recevied weather packets stored in our database for station/object N9ALD. If no packets are shown the sender has not sent any weather packets the latest 10 day(s).
| Time | Temp. | Humidity | Pressure | Rain* | Wind** | Luminosity | Snow |
|---|---|---|---|---|---|---|---|
| 1777467048 | 12.22° C | 97% | 1008.3 hPa | 0 mm | - | 97 W/m² | - |
| 1777466746 | 12.22° C | 97% | 1008.5 hPa | 0 mm | - | 88 W/m² | - |
| 1777466443 | 12.22° C | 97% | 1008.4 hPa | 0 mm | - | 79 W/m² | - |
| 1777466139 | 12.22° C | 97% | 1008.3 hPa | 0 mm | - | 77 W/m² | - |
| 1777465836 | 12.22° C | 97% | 1008.5 hPa | 0 mm | - | 60 W/m² | - |
| 1777465531 | 12.22° C | 97% | 1008.7 hPa | 0 mm | - | 51 W/m² | - |
| 1777465226 | 12.22° C | 97% | 1008.4 hPa | 0 mm | - | 51 W/m² | - |
| 1777464922 | 12.22° C | 98% | 1008.4 hPa | 0 mm | - | 41 W/m² | - |
| 1777464616 | 12.22° C | 98% | 1008.4 hPa | 0 mm | - | 41 W/m² | - |
| 1777464313 | 12.22° C | 97% | 1008.5 hPa | 0 mm | - | 49 W/m² | - |
| 1777464009 | 11.67° C | 97% | 1008.3 hPa | 0 mm | - | 30 W/m² | - |
| 1777463704 | 11.67° C | 97% | 1008.4 hPa | 0 mm | - | 14 W/m² | - |
| 1777463398 | 11.67° C | 97% | 1008.7 hPa | 0 mm | - | 10 W/m² | - |
| 1777463095 | 11.67° C | 97% | 1008.5 hPa | 0 mm | - | 11 W/m² | - |
| 1777462790 | 11.67° C | 97% | 1008.7 hPa | 0 mm | - | 18 W/m² | - |
| 1777462486 | 11.67° C | 97% | 1008.5 hPa | 0 mm | - | 19 W/m² | - |
| 1777462183 | 11.67° C | 97% | 1008.1 hPa | 0 mm | - | 9 W/m² | - |
| 1777461879 | 11.67° C | 97% | 1008 hPa | 0 mm | - | 9 W/m² | - |
| 1777461576 | 11.67° C | 97% | 1008 hPa | 0 mm | - | 4 W/m² | - |
| 1777461272 | 11.67° C | 97% | 1008.1 hPa | 0 mm | - | 4 W/m² | - |
| 1777460967 | 11.67° C | 97% | 1008 hPa | 1.27 mm | - | 4 W/m² | - |
| 1777460663 | 11.67° C | 97% | 1007.9 hPa | 1.27 mm | - | 2 W/m² | - |
| 1777460359 | 11.67° C | 97% | 1008 hPa | 1.27 mm | - | 2 W/m² | - |
| 1777460055 | 11.67° C | 97% | 1008.4 hPa | 0 mm | - | 1 W/m² | - |
| 1777459752 | 11.67° C | 97% | 1008.2 hPa | 0 mm | - | 1 W/m² | - |
* Rain latest hour (hover to see other rain measurements)
** Current wind speed in m/s (hover to see current wind gust speed)